Time,TemperatureF,DewpointF,PressureIn,WindDirection,WindDirectionDegrees,WindSpeedMPH,WindSpeedGustMPH,Humidity,HourlyPrecipIn,Conditions,Clouds,dailyrainin,SolarRadiationWatts/m^2,SoftwareType,DateUTC
2013-05-17 00:03:00,67.5,37.0,29.87,ENE,65,2.0,12.0,33,0.00,,,0.00,0,weatherlink.com 1.10,2013-05-17 04:03:00,
2013-05-17 00:18:00,66.3,40.0,29.88,NW,324,2.0,10.0,39,0.00,,,0.00,0,weatherlink.com 1.10,2013-05-17 04:18:00,
2013-05-17 00:33:00,64.7,42.0,29.88,North,11,6.0,13.0,44,0.00,,,0.00,0,weatherlink.com 1.10,2013-05-17 04:33:00,
2013-05-17 00:48:00,63.3,43.0,29.88,NNE,32,4.0,9.0,47,0.00,,,0.00,0,weatherlink.com 1.10,2013-05-17 04:48:00,
2013-05-17 01:03:00,62.2,43.0,29.89,North,5,4.0,11.0,49,0.00,,,0.00,0,weatherlink.com 1.10,2013-05-17 05:03:00,
2013-05-17 01:19:00,61.3,43.0,29.90,NNW,344,3.0,10.0,51,0.00,,,0.00,0,weatherlink.com 1.10,2013-05-17 05:19:00,
2013-05-17 01:34:00,60.6,43.0,29.90,NNW,346,6.0,9.0,52,0.00,,,0.00,0,weatherlink.com 1.10,2013-05-17 05:34:00,
2013-05-17 01:49:00,59.9,43.0,29.90,NW,315,3.0,8.0,53,0.00,,,0.00,0,weatherlink.com 1.10,2013-05-17 05:49:00,
2013-05-17 02:04:00,59.3,42.0,29.90,North,360,5.0,9.0,53,0.00,,,0.00,0,weatherlink.com 1.10,2013-05-17 06:04:00,
2013-05-17 02:19:00,58.8,42.0,29.90,NNE,14,7.0,7.0,54,0.00,,,0.00,0,weatherlink.com 1.10,2013-05-17 06:19:00,
2013-05-17 02:34:00,58.3,42.0,29.91,NNE,29,0.0,5.0,55,0.00,,,0.00,0,weatherlink.com 1.10,2013-05-17 06:34:00,
2013-05-17 02:49:00,57.7,42.0,29.91,NNW,335,1.0,5.0,57,0.00,,,0.00,0,weatherlink.com 1.10,2013-05-17 06:49:00,
2013-05-17 03:04:00,57.4,43.0,29.91,NNW,346,0.0,6.0,58,0.00,,,0.00,0,weatherlink.com 1.10,2013-05-17 07:04:00,
2013-05-17 03:19:00,56.9,42.0,29.91,NNW,329,1.0,4.0,59,0.00,,,0.00,0,weatherlink.com 1.10,2013-05-17 07:19:00,
2013-05-17 03:34:00,56.4,42.0,29.92,NNW,328,2.0,2.0,60,0.00,,,0.00,0,weatherlink.com 1.10,2013-05-17 07:34:00,
2013-05-17 03:49:00,55.9,43.0,29.92,West,280,1.0,3.0,62,0.00,,,0.00,0,weatherlink.com 1.10,2013-05-17 07:49:00,
2013-05-17 04:04:00,55.4,43.0,29.93,West,273,3.0,4.0,63,0.00,,,0.00,0,weatherlink.com 1.10,2013-05-17 08:04:00,
2013-05-17 04:19:00,55.0,43.0,29.93,WNW,287,0.0,3.0,64,0.00,,,0.00,0,weatherlink.com 1.10,2013-05-17 08:19:00,
2013-05-17 04:34:00,54.5,43.0,29.94,NW,325,3.0,4.0,65,0.00,,,0.00,0,weatherlink.com 1.10,2013-05-17 08:34:00,
2013-05-17 04:49:00,54.4,42.0,29.94,NW,306,6.0,11.0,64,0.00,,,0.00,0,weatherlink.com 1.10,2013-05-17 08:49:00,
2013-05-17 05:04:00,54.8,42.0,29.95,NNW,342,5.0,11.0,62,0.00,,,0.00,0,weatherlink.com 1.10,2013-05-17 09:04:00,
2013-05-17 05:19:00,54.8,41.0,29.96,North,351,5.0,12.0,61,0.00,,,0.00,5,weatherlink.com 1.10,2013-05-17 09:19:00,
2013-05-17 05:34:00,54.5,42.0,29.97,NNW,334,6.0,11.0,62,0.00,,,0.00,11,weatherlink.com 1.10,2013-05-17 09:34:00,
2013-05-17 05:49:00,54.4,42.0,29.97,NNW,342,2.0,12.0,63,0.00,,,0.00,23,weatherlink.com 1.10,2013-05-17 09:49:00,
2013-05-17 06:04:00,54.3,42.0,29.99,NNW,347,8.0,8.0,63,0.00,,,0.00,53,weatherlink.com 1.10,2013-05-17 10:04:00,
2013-05-17 06:19:00,54.1,42.0,30.00,NW,323,5.0,13.0,63,0.00,,,0.00,98,weatherlink.com 1.10,2013-05-17 10:19:00,
2013-05-17 06:35:00,54.4,42.0,30.00,NW,312,5.0,12.0,63,0.00,,,0.00,149,weatherlink.com 1.10,2013-05-17 10:35:00,
2013-05-17 06:50:00,54.7,42.0,30.02,WNW,300,8.0,11.0,62,0.00,,,0.00,207,weatherlink.com 1.10,2013-05-17 10:50:00,
2013-05-17 07:05:00,54.7,41.0,30.02,North,350,9.0,14.0,61,0.00,,,0.00,258,weatherlink.com 1.10,2013-05-17 11:05:00,
2013-05-17 07:20:00,54.8,41.0,30.03,West,277,11.0,16.0,60,0.00,,,0.00,304,weatherlink.com 1.10,2013-05-17 11:20:00,
2013-05-17 07:35:00,54.7,40.0,30.03,NNW,338,14.0,20.0,59,0.00,,,0.00,359,weatherlink.com 1.10,2013-05-17 11:35:00,
2013-05-17 07:50:00,55.2,40.0,30.04,NW,319,9.0,17.0,58,0.00,,,0.00,378,weatherlink.com 1.10,2013-05-17 11:50:00,
2013-05-17 08:05:00,55.2,40.0,30.05,North,360,8.0,16.0,58,0.00,,,0.00,425,weatherlink.com 1.10,2013-05-17 12:05:00,
2013-05-17 08:20:00,55.9,41.0,30.05,NNE,13,2.0,17.0,57,0.00,,,0.00,510,weatherlink.com 1.10,2013-05-17 12:20:00,
2013-05-17 08:35:00,55.9,40.0,30.05,North,5,4.0,15.0,56,0.00,,,0.00,443,weatherlink.com 1.10,2013-05-17 12:35:00,
2013-05-17 08:50:00,56.9,41.0,30.06,NNW,331,8.0,16.0,55,0.00,,,0.00,591,weatherlink.com 1.10,2013-05-17 12:50:00,
2013-05-17 09:05:00,56.8,41.0,30.06,NE,42,11.0,16.0,55,0.00,,,0.00,629,weatherlink.com 1.10,2013-05-17 13:05:00,
2013-05-17 09:20:00,57.6,40.0,30.05,North,11,5.0,15.0,53,0.00,,,0.00,656,weatherlink.com 1.10,2013-05-17 13:20:00,
2013-05-17 09:35:00,58.2,40.0,30.05,NNW,342,9.0,15.0,52,0.00,,,0.00,689,weatherlink.com 1.10,2013-05-17 13:35:00,
2013-05-17 09:50:00,59.5,41.0,30.05,NW,321,4.0,18.0,50,0.00,,,0.00,772,weatherlink.com 1.10,2013-05-17 13:50:00,
2013-05-17 10:05:00,59.3,41.0,30.05,NNE,32,10.0,16.0,51,0.00,,,0.00,819,weatherlink.com 1.10,2013-05-17 14:05:00,
2013-05-17 10:20:00,61.0,41.0,30.06,NNE,24,3.0,12.0,49,0.00,,,0.00,854,weatherlink.com 1.10,2013-05-17 14:20:00,
2013-05-17 10:35:00,61.1,41.0,30.07,North,5,11.0,15.0,48,0.00,,,0.00,719,weatherlink.com 1.10,2013-05-17 14:35:00,
2013-05-17 10:50:00,61.6,41.0,30.07,NNE,22,13.0,13.0,47,0.00,,,0.00,898,weatherlink.com 1.10,2013-05-17 14:50:00,
2013-05-17 11:05:00,61.8,41.0,30.08,North,360,5.0,13.0,47,0.00,,,0.00,954,weatherlink.com 1.10,2013-05-17 15:05:00,
2013-05-17 11:20:00,61.8,41.0,30.08,NE,41,9.0,15.0,47,0.00,,,0.00,1018,weatherlink.com 1.10,2013-05-17 15:20:00,
2013-05-17 11:36:00,62.5,42.0,30.08,NNE,13,5.0,13.0,47,0.00,,,0.00,1118,weatherlink.com 1.10,2013-05-17 15:36:00,
2013-05-17 11:51:00,62.4,42.0,30.08,NNW,341,2.0,12.0,47,0.00,,,0.00,294,weatherlink.com 1.10,2013-05-17 15:51:00,
2013-05-17 12:06:00,62.9,42.0,30.08,NW,310,2.0,12.0,47,0.00,,,0.00,257,weatherlink.com 1.10,2013-05-17 16:06:00,
2013-05-17 12:21:00,64.0,43.0,30.08,NW,317,9.0,15.0,46,0.00,,,0.00,274,weatherlink.com 1.10,2013-05-17 16:21:00,
2013-05-17 12:36:00,63.6,42.0,30.09,NNW,342,6.0,13.0,45,0.00,,,0.00,404,weatherlink.com 1.10,2013-05-17 16:36:00,
2013-05-17 12:51:00,63.8,42.0,30.09,NW,325,9.0,15.0,46,0.00,,,0.00,1194,weatherlink.com 1.10,2013-05-17 16:51:00,
2013-05-17 13:06:00,63.6,42.0,30.09,NW,325,6.0,16.0,45,0.00,,,0.00,1218,weatherlink.com 1.10,2013-05-17 17:06:00,
2013-05-17 13:21:00,64.1,41.0,30.09,West,270,4.0,16.0,43,0.00,,,0.00,478,weatherlink.com 1.10,2013-05-17 17:21:00,
2013-05-17 13:36:00,63.6,41.0,30.10,North,355,6.0,15.0,44,0.00,,,0.00,1011,weatherlink.com 1.10,2013-05-17 17:36:00,
2013-05-17 13:51:00,63.8,41.0,30.10,North,5,12.0,18.0,43,0.00,,,0.00,939,weatherlink.com 1.10,2013-05-17 17:51:00,
2013-05-17 14:06:00,64.7,42.0,30.10,NW,320,4.0,15.0,43,0.00,,,0.00,939,weatherlink.com 1.10,2013-05-17 18:06:00,
2013-05-17 14:21:00,64.5,41.0,30.10,NNW,344,11.0,16.0,43,0.00,,,0.00,905,weatherlink.com 1.10,2013-05-17 18:21:00,
2013-05-17 14:36:00,65.2,41.0,30.11,NNE,28,9.0,17.0,41,0.00,,,0.00,923,weatherlink.com 1.10,2013-05-17 18:36:00,
2013-05-17 14:51:00,66.2,40.0,30.11,NNE,25,5.0,16.0,39,0.00,,,0.00,967,weatherlink.com 1.10,2013-05-17 18:51:00,
2013-05-17 15:06:00,66.7,41.0,30.11,NNE,22,3.0,15.0,39,0.00,,,0.00,837,weatherlink.com 1.10,2013-05-17 19:06:00,
2013-05-17 15:21:00,66.6,41.0,30.11,NW,309,5.0,12.0,39,0.00,,,0.00,838,weatherlink.com 1.10,2013-05-17 19:21:00,
2013-05-17 15:36:00,67.4,41.0,30.11,NNW,343,11.0,13.0,38,0.00,,,0.00,891,weatherlink.com 1.10,2013-05-17 19:36:00,
2013-05-17 15:51:00,67.7,42.0,30.10,NE,34,9.0,11.0,39,0.00,,,0.00,742,weatherlink.com 1.10,2013-05-17 19:51:00,
2013-05-17 16:06:00,67.5,40.0,30.11,ENE,61,4.0,14.0,37,0.00,,,0.00,758,weatherlink.com 1.10,2013-05-17 20:06:00,
2013-05-17 16:21:00,68.3,40.0,30.11,North,350,6.0,11.0,35,0.00,,,0.00,647,weatherlink.com 1.10,2013-05-17 20:21:00,
2013-05-17 16:36:00,67.3,39.0,30.11,NNE,33,8.0,14.0,35,0.00,,,0.00,137,weatherlink.com 1.10,2013-05-17 20:36:00,
2013-05-17 16:51:00,68.0,38.0,30.12,NNE,29,11.0,13.0,34,0.00,,,0.00,561,weatherlink.com 1.10,2013-05-17 20:51:00,
2013-05-17 17:06:00,68.2,38.0,30.12,NW,309,10.0,15.0,33,0.00,,,0.00,510,weatherlink.com 1.10,2013-05-17 21:06:00,
2013-05-17 17:21:00,69.1,37.0,30.13,NE,54,4.0,12.0,31,0.00,,,0.00,531,weatherlink.com 1.10,2013-05-17 21:21:00,
2013-05-17 17:36:00,68.3,37.0,30.14,NW,313,6.0,12.0,32,0.00,,,0.00,83,weatherlink.com 1.10,2013-05-17 21:36:00,
2013-05-17 17:51:00,68.0,37.0,30.14,North,5,10.0,14.0,32,0.00,,,0.00,371,weatherlink.com 1.10,2013-05-17 21:51:00,
2013-05-17 18:06:00,68.8,38.0,30.15,North,5,10.0,13.0,32,0.00,,,0.00,297,weatherlink.com 1.10,2013-05-17 22:06:00,
2013-05-17 18:21:00,66.2,43.0,30.15,ESE,121,1.0,10.0,44,0.00,,,0.00,258,weatherlink.com 1.10,2013-05-17 22:21:00,
2013-05-17 18:36:00,64.4,42.0,30.16,East,85,5.0,10.0,44,0.00,,,0.00,195,weatherlink.com 1.10,2013-05-17 22:36:00,
2013-05-17 18:51:00,63.9,42.0,30.16,SSE,150,4.0,9.0,45,0.00,,,0.00,137,weatherlink.com 1.10,2013-05-17 22:51:00,
2013-05-17 19:06:00,63.8,43.0,30.17,SSE,148,3.0,9.0,47,0.00,,,0.00,84,weatherlink.com 1.10,2013-05-17 23:06:00,
2013-05-17 19:21:00,63.2,43.0,30.18,ESE,109,4.0,6.0,48,0.00,,,0.00,53,weatherlink.com 1.10,2013-05-17 23:21:00,
2013-05-17 19:36:00,62.8,44.0,30.19,ESE,115,4.0,7.0,50,0.00,,,0.00,21,weatherlink.com 1.10,2013-05-17 23:36:00,
2013-05-17 19:51:00,61.7,44.0,30.19,ESE,121,5.0,8.0,53,0.00,,,0.00,11,weatherlink.com 1.10,2013-05-17 23:51:00,
2013-05-17 20:06:00,60.2,44.0,30.20,East,101,5.0,7.0,56,0.00,,,0.00,0,weatherlink.com 1.10,2013-05-18 00:06:00,
2013-05-17 20:21:00,58.7,44.0,30.21,ESE,117,1.0,8.0,59,0.00,,,0.00,0,weatherlink.com 1.10,2013-05-18 00:21:00,
2013-05-17 20:36:00,58.4,45.0,30.22,SE,127,2.0,5.0,61,0.00,,,0.00,0,weatherlink.com 1.10,2013-05-18 00:36:00,
2013-05-17 20:51:00,58.4,45.0,30.23,ESE,109,1.0,5.0,62,0.00,,,0.00,0,weatherlink.com 1.10,2013-05-18 00:51:00,
2013-05-17 21:06:00,58.2,45.0,30.24,ESE,105,3.0,5.0,62,0.00,,,0.00,0,weatherlink.com 1.10,2013-05-18 01:06:00,
2013-05-17 21:21:00,58.0,45.0,30.24,East,92,1.0,5.0,63,0.00,,,0.00,0,weatherlink.com 1.10,2013-05-18 01:21:00,
2013-05-17 21:36:00,57.9,46.0,30.25,East,98,0.0,3.0,64,0.00,,,0.00,0,weatherlink.com 1.10,2013-05-18 01:36:00,
2013-05-17 21:51:00,57.6,46.0,30.25,East,98,0.0,2.0,65,0.00,,,0.00,0,weatherlink.com 1.10,2013-05-18 01:51:00,
2013-05-17 22:07:00,57.2,46.0,30.25,East,98,0.0,1.0,67,0.00,,,0.00,0,weatherlink.com 1.10,2013-05-18 02:07:00,
2013-05-17 22:22:00,57.0,46.0,30.26,East,97,0.0,2.0,68,0.00,,,0.00,0,weatherlink.com 1.10,2013-05-18 02:22:00,
2013-05-17 22:37:00,56.8,46.0,30.26,East,97,0.0,1.0,68,0.00,,,0.00,0,weatherlink.com 1.10,2013-05-18 02:37:00,
2013-05-17 22:52:00,57.3,46.0,30.27,South,178,1.0,3.0,66,0.00,,,0.00,0,weatherlink.com 1.10,2013-05-18 02:52:00,
2013-05-17 23:07:00,57.2,46.0,30.27,SSW,205,3.0,4.0,66,0.00,,,0.00,0,weatherlink.com 1.10,2013-05-18 03:07:00,
2013-05-17 23:22:00,57.1,46.0,30.27,SW,232,2.0,4.0,66,0.00,,,0.00,0,weatherlink.com 1.10,2013-05-18 03:22:00,
2013-05-17 23:37:00,56.8,46.0,30.27,SSW,211,1.0,3.0,67,0.00,,,0.00,0,weatherlink.com 1.10,2013-05-18 03:37:00,
2013-05-17 23:52:00,56.7,46.0,30.27,WSW,254,1.0,4.0,67,0.00,,,0.00,0,weatherlink.com 1.10,2013-05-18 03:52:00,